Terug naar catalogus

STARLINK-36595

ActiefCommunicatieVLEO
NORAD 67639·PAYLOAD·🇺🇸 United States

Gelanceerd Jan 30, 2026 vanaf Cape Canaveral Space Force Station

Loading…

Volgende Passages (komende 24 uur)

TLE

VersSource: CelesTrak SupGP

Epoch: Sep 14, 2026, 23:21 UTC

1 67639C 26020Y   26257.97340278 -.00132100  00000+0 -47886-2 0  2573
2 67639  42.9996 150.8262 0001267 276.2976  14.8731 15.27617668    15

Volg STARLINK-36595 in realtime met AllMySat

Download on the App Store